Home > Weather > Malmö > Past weeks

Flag for Sweden Weather for the Past 2 Weeks in Malmö, Sweden

Now
52 °F

Scattered clouds.


Feels Like: 47 °F
Forecast: 41 / 60 °F
Wind: 16 mph from Northwest

Location: Malmo / Sturup

Current Time: May 4, 2016 at 12:05:38 PM

Latest Report: May 4, 2016 at 11:20 AM


Visibility: N/A

Pressure: 30.30 "Hg

Humidity: 72%

Dew Point: 43 °F

Location of MalmöLocation

Historic Weather in Malmö — Graph

°F

Malmö Temperature Yesterday

Maximum temperature yesterday: 61 °F (at 2:20 PM)
Minimum temperature yesterday: 45 °F (at 4:50 AM)
Average temperature yesterday: 52 °F

High & Low Weather Summary for the Past Weeks

 TemperatureHumidityPressure
High61 °F (May 3, 2:20 PM)100% (Apr 21, 4:50 AM)30.33 "Hg (Apr 21, 4:50 AM)
Low27 °F (Apr 24, 5:20 AM)32% (Apr 22, 3:50 PM)29.33 "Hg (Apr 27, 2:50 AM)
Average44 °F75%29.93 "Hg
* Reported Apr 19 9:20 AM — May 4 9:50 AM, Malmö, Weather by CustomWeather, © 2016

Note: Actual official high and low records may vary slightly from our data, if they occured in-between our weather recording intervals... More about our weather records

Advertising

Malmö Weather History for the Previous 24 Hours

Scroll right to see more
 ConditionsComfort  
Time TempWeatherWind HumidityBarometerVisibility
9:50 AM
Wed, May 4
50 °FPartly sunny.15 mph76%30.30 "HgN/A
9:20 AM48 °FPartly sunny.14 mph76%30.30 "HgN/A
8:20 AM46 °FPartly sunny.14 mph82%30.27 "HgN/A
7:50 AM45 °FPartly sunny.12 mph93%30.27 "HgN/A
7:20 AM45 °FSunny.13 mph93%30.24 "Hg10 mi
6:20 AM43 °FSunny.9 mph93%30.24 "Hg10 mi
5:50 AM43 °FClear.9 mph93%30.24 "Hg10 mi
5:20 AM43 °FClear.8 mph93%30.24 "Hg10 mi
4:50 AM43 °FClear.10 mph93%30.21 "Hg10 mi
4:20 AM43 °FClear.10 mph93%30.21 "Hg10 mi
3:50 AM43 °FClear.8 mph93%30.21 "Hg10 mi
3:20 AM43 °FClear.10 mph93%30.21 "Hg10 mi
1:50 AM45 °FClear.8 mph87%30.18 "Hg10 mi
12:50 AM45 °FClear.8 mph87%30.18 "Hg10 mi
11:50 PM
Tue, May 3
46 °FClear.12 mph76%30.15 "Hg10 mi
11:20 PM46 °FClear.12 mph76%30.15 "Hg10 mi
10:50 PM48 °FClear.9 mph76%30.15 "Hg10 mi
10:20 PM48 °FClear.10 mph76%30.15 "Hg10 mi
9:50 PM48 °FClear.10 mph82%30.12 "Hg10 mi
9:20 PM48 °FSunny.13 mph82%30.12 "Hg10 mi
8:50 PM48 °FSunny.12 mph82%30.12 "Hg10 mi
8:20 PM50 °FSunny.13 mph76%30.09 "Hg10 mi
7:50 PM50 °FSunny.13 mph76%30.09 "Hg10 mi
7:20 PM50 °FScattered clouds.16 mph82%30.09 "HgN/A
6:50 PM52 °FPartly sunny.16 mph82%30.07 "HgN/A
6:20 PM54 °FScattered clouds.15 mph82%30.07 "HgN/A
5:50 PM55 °FPassing clouds.16 mph77%30.07 "HgN/A
5:20 PM57 °FSunny.14 mph67%30.07 "Hg10 mi
4:50 PM59 °FPassing clouds.10 mph63%30.04 "HgN/A
4:20 PM61 °FSunny.8 mph55%30.04 "Hg10 mi
3:50 PM59 °FSunny.9 mph55%30.04 "Hg10 mi
3:20 PM59 °FSunny.9 mph59%30.04 "Hg10 mi
2:50 PM59 °FSunny.10 mph55%30.04 "Hg10 mi
2:20 PM61 °FSunny.10 mph55%30.04 "Hg10 mi
1:20 PM59 °FSunny.13 mph59%30.04 "Hg10 mi
12:50 PM59 °FSunny.12 mph55%30.04 "Hg10 mi
12:20 PM59 °FSunny.10 mph55%30.04 "Hg10 mi
Weather by CustomWeather, © 2016

See weather overviewHow to use our weather pages